GW5363 Weather Reports


time (UTC)temp
C
wind
direction
speed
KPH
gust
KPH
rain 1hr
cm
rain 24hr
cm
rain mn
cm
humidity
%
barometer
mb
20260508012646 6 309 4.8 4.8 0.00 0.08 0.08 62 1012.3
20260508012143 6 303 0.0 0.0 0.00 0.08 0.08 66 1012.0
20260508011641 6 303 0.0 0.0 0.00 0.08 0.08 66 1012.1
20260508011138 7 303 0.0 0.0 0.00 0.08 0.08 64 1012.0
20260508010635 7 306 0.0 0.0 0.00 0.08 0.08 62 1012.2
20260508010133 7 309 0.0 0.0 0.00 0.08 0.08 60 1011.9
20260508005630 7 306 0.0 0.0 0.00 0.08 0.08 60 1012.1
20260508005126 7 290 1.6 1.6 0.00 0.08 0.08 60 1011.8
20260508004622 7 302 1.6 1.6 0.00 0.08 0.08 59 1012.0
20260508004119 7 312 1.6 3.2 0.00 0.08 0.08 58 1011.7
20260508003615 7 304 1.6 1.6 0.00 0.08 0.08 58 1011.8
20260508003113 8 308 0.0 0.0 0.00 0.08 0.08 57 1011.4
20260508002609 8 276 4.8 4.8 0.00 0.08 0.08 56 1011.4
20260508002107 8 316 1.6 3.2 0.00 0.08 0.08 55 1011.3
20260508001602 8 314 0.0 1.6 0.00 0.08 0.08 54 1011.2
20260508001059 8 325 3.2 4.8 0.00 0.08 0.08 54 1011.4
20260508000555 8 304 4.8 4.8 0.00 0.08 0.08 53 1011.5
20260508000052 8 289 3.2 3.2 0.00 0.08 0.08 53 1011.3
20260507235549 9 267 1.6 4.8 0.00 0.08 0.08 52 1011.3
20260507235047 9 290 8.0 9.7 0.00 0.08 0.08 51 1011.1
20260507234542 9 309 6.4 6.4 0.00 0.08 0.08 51 1011.2
20260507234039 9 286 6.4 6.4 0.00 0.08 0.08 51 1011.2
20260507233536 10 287 4.8 4.8 0.00 0.08 0.08 51 1011.2
20260507233035 10 238 6.4 6.4 0.00 0.08 0.08 50 1011.0
20260507232530 10 292 6.4 9.7 0.00 0.08 0.08 48 1011.1
20260507232028 10 355 3.2 4.8 0.00 0.08 0.08 50 1011.0
20260507231524 10 296 3.2 4.8 0.00 0.08 0.08 50 1010.8
20260507231022 10 284 9.7 12.9 0.00 0.08 0.08 50 1010.9
20260507230518 10 336 6.4 9.7 0.00 0.08 0.08 51 1010.8
20260507230015 10 223 9.7 11.3 0.00 0.08 0.08 51 1010.9
20260507225510 10 290 8.0 11.3 0.00 0.08 0.08 50 1010.8
20260507225007 11 298 6.4 11.3 0.00 0.08 0.08 49 1011.0
20260507224502 11 297 4.8 6.4 0.00 0.08 0.08 50 1010.8
20260507223959 11 251 11.3 12.9 0.00 0.08 0.08 50 1010.8
20260507223455 10 227 8.0 9.7 0.00 0.08 0.08 51 1010.8
20260507222952 11 317 6.4 11.3 0.00 0.08 0.08 50 1010.5
20260507222449 11 292 11.3 17.7 0.00 0.08 0.08 48 1010.6
20260507221945 12 318 6.4 9.7 0.00 0.08 0.08 48 1010.6
20260507221442 12 169 11.3 14.5 0.00 0.08 0.08 48 1010.5
20260507220939 12 251 11.3 12.9 0.00 0.08 0.08 46 1010.6
20260507220437 12 325 6.4 11.3 0.00 0.08 0.08 45 1010.3
20260507215933 12 310 1.6 3.2 0.00 0.08 0.08 50 1010.2
20260507215429 11 296 6.4 9.7 0.00 0.08 0.08 48 1010.2
20260507214926 12 308 8.0 11.3 0.00 0.08 0.08 48 1010.3
20260507214424 12 359 4.8 4.8 0.00 0.08 0.08 48 1010.1
20260507213919 12 237 14.5 20.9 0.00 0.08 0.08 48 1010.3
20260507213416 11 251 6.4 9.7 0.00 0.08 0.08 52 1010.1
20260507212913 11 321 3.2 4.8 0.00 0.08 0.08 48 1010.0
20260507212409 11 258 11.3 16.1 0.00 0.08 0.08 48 1009.9
20260507211906 11 275 8.0 11.3 0.00 0.08 0.08 50 1009.9
20260507211402 11 303 4.8 4.8 0.00 0.08 0.08 50 1010.0
20260507210859 11 307 4.8 4.8 0.00 0.08 0.08 50 1010.0
20260507210356 11 284 4.8 4.8 0.00 0.08 0.08 53 1010.0
20260507205852 11 305 8.0 12.9 0.00 0.08 0.08 52 1010.1
20260507205349 11 267 6.4 6.4 0.00 0.08 0.08 51 1010.0
20260507204846 11 322 4.8 6.4 0.00 0.08 0.08 52 1009.7
20260507204343 11 251 8.0 14.5 0.00 0.08 0.08 50 1009.8
20260507203841 12 269 20.9 25.7 0.00 0.08 0.08 48 1009.9
20260507203338 12 337 9.7 12.9 0.00 0.08 0.08 49 1010.0
20260507202834 12 349 0.0 1.6 0.00 0.08 0.08 51 1009.8
20260507202331 11 241 4.8 9.7 0.00 0.08 0.08 54 1010.0
20260507201826 11 275 12.9 14.5 0.00 0.08 0.08 51 1009.9
20260507201322 12 259 12.9 16.1 0.00 0.08 0.08 50 1010.2
20260507200819 12 261 12.9 16.1 0.00 0.08 0.08 50 1010.1
20260507200314 12 291 12.9 14.5 0.00 0.08 0.08 51 1010.2
20260507195811 12 234 6.4 9.7 0.00 0.08 0.08 49 1010.5
20260507195308 11 358 8.0 9.7 0.00 0.08 0.08 51 1010.3
20260507194806 12 307 6.4 9.7 0.00 0.08 0.08 50 1010.5
20260507194301 12 305 6.4 11.3 0.00 0.08 0.08 51 1010.3
20260507193758 12 341 4.8 4.8 0.00 0.08 0.08 49 1010.5
20260507193255 12 246 12.9 16.1 0.00 0.08 0.08 51 1010.5
20260507192751 12 355 6.4 11.3 0.00 0.08 0.08 49 1010.5
20260507192248 12 279 12.9 14.5 0.00 0.08 0.08 50 1010.5
20260507191744 11 289 12.9 17.7 0.00 0.08 0.08 49 1010.5
20260507191241 11 233 8.0 11.3 0.00 0.08 0.08 53 1010.6
20260507190738 12 226 6.4 9.7 0.00 0.08 0.08 51 1010.2
20260507190236 12 233 17.7 22.5 0.00 0.08 0.08 50 1010.3
20260507185735 11 277 6.4 9.7 0.00 0.08 0.08 52 1010.2
20260507185231 12 244 12.9 16.1 0.00 0.08 0.08 52 1010.3
20260507184729 12 317 9.7 12.9 0.00 0.08 0.08 52 1010.5
20260507184227 11 214 6.4 6.4 0.00 0.08 0.08 53 1010.5
20260507183723 12 231 22.5 27.4 0.00 0.08 0.08 51 1010.5
20260507183220 11 230 9.7 12.9 0.00 0.08 0.08 54 1010.6
20260507182717 11 281 6.4 9.7 0.00 0.08 0.08 56 1010.3
20260507182212 11 337 4.8 4.8 0.00 0.08 0.08 56 1010.7
20260507181709 11 300 4.8 4.8 0.00 0.08 0.08 56 1010.5
20260507181206 12 293 8.0 14.5 0.00 0.08 0.08 55 1010.8
20260507180702 12 270 6.4 9.7 0.00 0.08 0.08 54 1010.6
20260507180159 11 300 3.2 4.8 0.00 0.08 0.08 55 1010.6
20260507175655 11 310 0.0 1.6 0.00 0.08 0.08 59 1010.6
20260507175152 11 319 8.0 12.9 0.00 0.08 0.08 59 1010.8
20260507174649 12 172 6.4 9.7 0.00 0.08 0.08 57 1010.5
20260507174148 12 346 6.4 9.7 0.00 0.08 0.08 59 1010.7
20260507173644 11 299 6.4 9.7 0.00 0.08 0.08 57 1010.8
20260507173141 11 251 4.8 6.4 0.00 0.08 0.08 58 1010.9
20260507172637 11 246 6.4 9.7 0.00 0.08 0.08 58 1010.7
20260507172135 11 321 4.8 6.4 0.00 0.08 0.08 58 1010.9
20260507171635 11 314 6.4 11.3 0.00 0.08 0.08 59 1010.9
20260507171133 11 295 9.7 14.5 0.00 0.08 0.08 59 1011.1
20260507170630 11 310 4.8 6.4 0.00 0.08 0.08 61 1011.0
20260507170127 11 326 0.0 1.6 0.00 0.08 0.08 62 1011.2
20260507165622 11 306 6.4 6.4 0.00 0.08 0.08 63 1011.4
20260507165119 10 229 3.2 4.8 0.00 0.08 0.08 62 1011.3
20260507164615 10 310 9.7 17.7 0.00 0.08 0.08 59 1011.3
20260507164112 10 243 6.4 11.3 0.00 0.08 0.08 61 1011.7
20260507163609 10 319 3.2 4.8 0.00 0.08 0.08 65 1011.5
20260507163108 10 296 9.7 14.5 0.00 0.08 0.08 65 1011.8
20260507162607 11 187 11.3 14.5 0.00 0.08 0.08 64 1011.5
20260507162104 10 292 4.8 4.8 0.00 0.08 0.08 66 1011.5
20260507161600 10 276 11.3 12.9 0.00 0.08 0.08 66 1011.7
20260507161057 10 279 6.4 6.4 0.00 0.08 0.08 72 1011.9
20260507160554 10 268 8.0 11.3 0.00 0.08 0.08 68 1011.7
20260507160050 9 211 3.2 9.7 0.00 0.08 0.08 70 1011.8
20260507155545 10 312 3.2 4.8 0.00 0.08 0.08 69 1011.9
20260507155043 10 274 3.2 3.2 0.00 0.08 0.08 69 1011.8
20260507154539 10 279 6.4 9.7 0.00 0.08 0.08 70 1011.8
20260507154037 10 240 9.7 12.9 0.00 0.08 0.08 66 1011.8
20260507153534 9 288 9.7 12.9 0.00 0.08 0.08 69 1011.9
20260507153030 10 300 8.0 11.3 0.00 0.08 0.08 67 1011.9
20260507152526 9 228 14.5 17.7 0.00 0.08 0.08 69 1011.9
20260507152022 10 291 6.4 9.7 0.00 0.08 0.08 72 1011.9
20260507151518 9 303 8.0 9.7 0.00 0.08 0.08 73 1012.0
20260507151015 9 272 14.5 16.1 0.00 0.08 0.08 72 1012.1
20260507150512 8 338 3.2 3.2 0.00 0.08 0.08 76 1012.0
20260507150009 9 228 8.0 11.3 0.00 0.08 0.08 74 1012.0
20260507145504 8 318 1.6 3.2 0.00 0.08 0.08 76 1012.4
20260507145001 8 314 1.6 3.2 0.00 0.08 0.08 77 1012.3
20260507144458 8 301 6.4 9.7 0.00 0.08 0.08 75 1012.3
20260507143955 7 280 3.2 4.8 0.00 0.08 0.08 76 1012.4
20260507143453 7 348 6.4 6.4 0.00 0.08 0.08 77 1012.5
20260507142949 7 323 3.2 4.8 0.00 0.08 0.08 80 1012.5
20260507142445 7 275 8.0 9.7 0.00 0.08 0.08 74 1012.6
20260507141942 7 286 6.4 6.4 0.00 0.08 0.08 77 1012.5
20260507141438 7 300 1.6 4.8 0.00 0.08 0.08 80 1012.8
20260507140935 7 266 9.7 11.3 0.00 0.08 0.08 81 1012.9
20260507140432 6 240 4.8 6.4 0.00 0.08 0.08 81 1012.8
20260507135930 6 227 6.4 6.4 0.00 0.08 0.08 81 1012.9
20260507135426 6 304 4.8 4.8 0.00 0.08 0.08 82 1012.9
20260507134924 7 312 4.8 4.8 0.00 0.08 0.08 82 1013.1
20260507134420 7 222 6.4 9.7 0.00 0.08 0.08 83 1012.9
20260507133916 7 242 4.8 9.7 0.00 0.08 0.08 83 1013.1
20260507133412 6 316 0.0 0.0 0.00 0.08 0.08 85 1013.0
20260507132911 6 281 6.4 6.4 0.00 0.08 0.08 84 1013.1
20260507132407 6 296 3.2 3.2 0.00 0.08 0.08 83 1013.1
20260507131903 6 322 3.2 3.2 0.00 0.08 0.08 87 1013.1
20260507131400 6 303 1.6 3.2 0.00 0.08 0.08 89 1012.9
20260507130857 6 287 1.6 3.2 0.00 0.08 0.08 88 1013.2
20260507130354 6 314 3.2 4.8 0.00 0.08 0.08 90 1013.0
20260507125853 6 269 3.2 3.2 0.00 0.08 0.08 90 1013.4
20260507125350 6 303 3.2 4.8 0.00 0.08 0.08 90 1013.2
20260507124848 6 318 0.0 0.0 0.00 0.08 0.08 91 1013.0
20260507124343 5 302 3.2 3.2 0.00 0.08 0.08 91 1013.2
20260507123842 5 296 3.2 4.8 0.00 0.08 0.08 93 1013.2
20260507123339 5 316 3.2 4.8 0.00 0.08 0.08 93 1013.4
20260507122836 5 305 3.2 3.2 0.00 0.08 0.08 93 1013.5
20260507122331 5 311 1.6 1.6 0.00 0.08 0.08 93 1013.3
20260507121827 5 288 1.6 3.2 0.00 0.08 0.08 94 1013.3
20260507121323 5 272 1.6 3.2 0.00 0.08 0.08 93 1013.3
20260507120819 5 271 1.6 3.2 0.00 0.08 0.08 94 1013.2
20260507120316 5 292 1.6 1.6 0.00 0.08 0.08 95 1013.1
20260507115812 5 299 0.0 0.0 0.00 0.08 0.08 96 1013.0
20260507115308 5 300 0.0 0.0 0.00 0.08 0.08 96 1013.2
20260507114804 5 300 0.0 0.0 0.00 0.08 0.08 96 1013.1
20260507114301 5 300 0.0 0.0 0.00 0.08 0.08 96 1013.1
20260507113759 5 300 0.0 0.0 0.00 0.08 0.08 97 1013.0
20260507113256 5 300 0.0 0.0 0.00 0.08 0.08 97 1012.8
20260507112754 5 300 0.0 0.0 0.00 0.08 0.08 97 1012.5
20260507112250 5 299 1.6 1.6 0.00 0.08 0.08 97 1012.6
20260507111748 5 299 0.0 0.0 0.00 0.08 0.08 97 1012.8
20260507111244 5 295 0.0 0.0 0.00 0.08 0.08 97 1012.4
20260507110740 5 300 0.0 0.0 0.00 0.08 0.08 97 1012.6
20260507110237 5 300 0.0 0.0 0.00 0.08 0.08 97 1012.5
20260507105734 5 296 1.6 1.6 0.00 0.08 0.08 97 1012.6
20260507105230 4 305 0.0 0.0 0.00 0.08 0.08 97 1012.4
20260507104727 4 286 3.2 3.2 0.00 0.08 0.08 97 1012.5
20260507104224 5 299 1.6 1.6 0.00 0.08 0.08 98 1012.5
20260507103720 5 288 3.2 3.2 0.00 0.08 0.08 98 1012.5
20260507103216 5 301 1.6 1.6 0.00 0.08 0.08 98 1012.3
20260507102713 5 308 0.0 0.0 0.00 0.08 0.08 98 1012.3
20260507102209 5 306 0.0 0.0 0.00 0.08 0.08 98 1012.3
20260507101705 5 309 1.6 3.2 0.00 0.08 0.08 98 1012.3
20260507101200 5 304 1.6 3.2 0.00 0.08 0.08 98 1012.2
20260507100658 5 305 0.0 1.6 0.00 0.08 0.08 98 1012.1
20260507100157 5 309 1.6 3.2 0.00 0.08 0.08 98 1012.1
20260507095654 5 315 0.0 1.6 0.00 0.08 0.08 98 1012.0
20260507095151 5 322 0.0 0.0 0.00 0.08 0.08 98 1011.8
20260507094647 5 306 0.0 0.0 0.00 0.08 0.08 99 1011.8
20260507094144 5 320 0.0 0.0 0.00 0.08 0.08 98 1011.5
20260507093642 5 319 0.0 1.6 0.00 0.08 0.08 98 1011.8
20260507093141 5 309 1.6 1.6 0.00 0.08 0.08 98 1011.9
20260507092636 5 304 0.0 1.6 0.00 0.08 0.08 98 1011.9
20260507092133 5 303 0.0 1.6 0.00 0.08 0.08 98 1012.0
20260507091630 5 331 0.0 1.6 0.00 0.08 0.08 98 1012.1
20260507091126 6 333 0.0 0.0 0.00 0.08 0.08 98 1012.0
20260507090621 6 324 0.0 0.0 0.00 0.08 0.08 98 1012.0
20260507090119 6 299 1.6 1.6 0.00 0.08 0.08 98 1012.0
20260507085616 6 302 1.6 3.2 0.00 0.08 0.08 98 1011.8
20260507085112 6 313 1.6 1.6 0.18 0.08 0.08 98 1011.9
20260507084609 6 251 4.8 4.8 0.18 0.08 0.08 98 1011.8
20260507084106 6 304 1.6 1.6 0.00 0.05 0.05 98 1011.9
20260507083603 6 280 0.0 0.0 0.00 0.05 0.05 98 1012.1
20260507083100 6 307 1.6 1.6 0.00 0.05 0.05 98 1012.0
20260507082555 6 286 4.8 4.8 0.00 0.05 0.05 98 1012.0
20260507082052 6 289 4.8 4.8 0.00 0.05 0.05 98 1012.0
20260507081548 6 309 0.0 0.0 0.00 0.05 0.05 98 1011.9
20260507081045 6 312 3.2 3.2 0.00 0.05 0.05 98 1012.3
20260507080541 6 301 1.6 3.2 0.00 0.05 0.05 98 1011.9
20260507080038 6 301 3.2 3.2 0.00 0.05 0.05 98 1011.9
20260507075533 6 301 3.2 3.2 0.00 0.05 0.05 98 1011.9
20260507075030 6 278 3.2 4.8 0.00 0.05 0.05 98 1012.0
20260507074526 6 318 1.6 3.2 0.00 0.05 0.05 98 1012.0
20260507074025 6 269 4.8 4.8 0.00 0.05 0.05 99 1011.9
20260507073521 6 297 1.6 1.6 0.00 0.05 0.05 98 1011.7
20260507073018 6 291 1.6 3.2 0.00 0.05 0.05 98 1011.9
20260507072515 6 251 3.2 3.2 0.00 0.05 0.05 99 1012.0
20260507072012 6 306 1.6 1.6 0.00 0.05 0.05 99 1012.0
20260507071509 6 293 3.2 3.2 0.00 0.05 0.05 98 1011.9
20260507071006 6 287 3.2 3.2 0.00 0.05 0.05 99 1012.0
20260507070503 6 294 1.6 3.2 0.00 0.05 0.05 98 1012.0
20260507070000 6 303 0.0 0.0 0.00 0.05 0.05 98 1011.9
20260507065456 6 302 0.0 0.0 0.00 0.05 0.05 98 1012.1
20260507064954 6 303 0.0 0.0 0.00 0.05 0.05 98 1012.0
20260507064452 5 303 0.0 1.6 0.00 0.05 0.05 98 1011.8
20260507063949 6 310 1.6 3.2 0.00 0.05 0.05 98 1011.8
20260507063446 6 296 1.6 1.6 0.00 0.05 0.05 98 1012.1
20260507062943 6 303 1.6 1.6 0.00 0.05 0.05 98 1012.0
20260507062440 6 308 3.2 3.2 0.00 0.05 0.05 98 1012.0
20260507061937 6 288 0.0 0.0 0.00 0.05 0.05 98 1012.2
20260507061436 6 298 3.2 3.2 0.00 0.05 0.05 98 1012.4
20260507060934 5 306 0.0 1.6 0.00 0.05 0.05 98 1012.4
20260507060430 5 282 1.6 1.6 0.00 0.05 0.05 98 1012.4
20260507055927 6 258 3.2 3.2 0.00 0.05 0.05 98 1012.5
20260507055422 6 310 0.0 0.0 0.00 0.05 0.05 98 1012.5
20260507054919 6 311 0.0 0.0 0.00 0.05 0.05 98 1012.9
20260507054415 6 288 3.2 3.2 0.00 0.05 0.05 98 1012.8
20260507053913 6 304 0.0 1.6 0.00 0.05 0.05 98 1012.9
20260507053410 6 301 1.6 1.6 0.00 0.05 0.05 98 1013.1
20260507052909 6 305 0.0 0.0 0.00 0.05 0.05 98 1012.8
20260507052406 6 306 0.0 0.0 0.00 0.05 0.05 98 1013.0
20260507051903 6 306 0.0 0.0 0.00 0.05 0.05 98 1013.0
20260507051400 6 294 0.0 1.6 0.00 0.05 0.05 98 1013.0
20260507050857 6 300 3.2 3.2 0.13 0.05 0.05 98 1012.9
20260507050354 6 267 3.2 3.2 0.13 0.05 0.05 98 1012.9
20260507045850 6 293 1.6 1.6 0.13 0.05 0.05 98 1013.0
20260507045347 6 320 4.8 9.7 0.00 0.03 0.03 98 1013.0
20260507044845 6 297 3.2 3.2 0.00 0.03 0.03 98 1013.0
20260507044341 6 329 0.0 0.0 0.00 0.03 0.03 99 1012.9
20260507043837 6 331 0.0 0.0 0.00 0.03 0.03 99 1012.8
20260507043334 6 310 1.6 1.6 0.00 0.03 0.03 99 1012.5
20260507042830 6 320 0.0 0.0 0.00 0.03 0.03 99 1012.2
20260507042325 6 315 0.0 0.0 0.18 0.03 0.03 99 1012.4
20260507041823 6 318 3.2 3.2 0.18 0.03 0.03 99 1012.6
20260507041319 7 28 1.6 1.6 0.00 0.00 0.00 99 1012.6
20260507040816 7 257 3.2 4.8 0.00 0.00 0.00 99 1012.4
20260507040312 7 264 4.8 4.8 0.00 0.00 0.00 99 1012.3
20260507035808 7 311 0.0 1.6 0.00 1.55 1.55 99 1012.2
20260507035306 7 321 0.0 1.6 0.13 1.55 1.55 99 1012.5
20260507034802 7 316 0.0 1.6 0.13 1.55 1.55 99 1012.5
20260507034258 7 325 0.0 0.0 0.00 1.52 1.52 99 1012.6
20260507033757 7 218 1.6 4.8 0.00 1.52 1.52 99 1012.6
20260507033254 7 330 0.0 0.0 0.00 1.52 1.52 99 1012.5
20260507032751 7 297 1.6 3.2 0.18 1.52 1.52 99 1011.8
20260507032247 7 302 4.8 4.8 0.18 1.52 1.52 99 1012.6
20260507031743 8 299 6.4 11.3 0.00 1.50 1.50 99 1013.2
20260507031241 8 308 1.6 3.2 0.00 1.50 1.50 99 1013.1
20260507030737 8 302 0.0 1.6 0.00 1.50 1.50 99 1012.6
20260507030235 8 314 1.6 3.2 0.00 1.50 1.50 99 1012.3
20260507025732 8 273 3.2 3.2 0.00 1.50 1.50 99 1011.7
20260507025229 8 299 1.6 3.2 0.00 1.50 1.50 99 1012.1
20260507024727 8 291 3.2 3.2 0.00 1.50 1.50 99 1012.6
20260507024224 8 290 3.2 4.8 0.00 1.50 1.50 99 1012.8
20260507023719 8 296 3.2 4.8 0.13 1.50 1.50 99 1012.3
20260507023216 8 304 1.6 3.2 0.13 1.50 1.50 99 1012.8
20260507022714 8 301 3.2 3.2 0.00 1.47 1.47 99 1012.9
20260507022210 8 265 0.0 3.2 0.00 1.47 1.47 99 1012.6
20260507021706 8 310 6.4 6.4 0.00 1.47 1.47 99 1012.2
20260507021201 8 311 1.6 3.2 0.00 1.47 1.47 99 1012.1
20260507020701 8 285 1.6 3.2 0.00 1.47 1.47 99 1012.2
20260507020156 8 320 3.2 4.8 0.00 1.47 1.47 99 1012.0
20260507015654 8 274 3.2 3.2 0.00 1.47 1.47 99 1012.0
20260507015151 8 320 4.8 6.4 0.00 1.47 1.47 99 1011.9
20260507014648 8 255 3.2 4.8 0.18 1.47 1.47 99 1012.2
20260507014144 8 278 3.2 3.2 0.18 1.47 1.47 99 1011.9
20260507013641 8 327 1.6 1.6 0.00 1.45 1.45 99 1012.1
20260507013138 8 327 1.6 1.6 0.00 1.45 1.45 99 1011.8